Regional Weather Roundup
Issued by NWS Bismarck, ND

Home | Current Version | Previous Version | Text Only | Print | Product List | Glossary On
Versions: 1 2 3 4 5 6 7 8 9 10 11 12 13 14 15 16 17 18 19 20 21 22 23 24 25 26 27 28 29 30 31 32 33 34 35 36 37 38 39 40 41 42 43 44 45 46 47 48 49 50
081
ASUS43 KBIS 220802
RWRBIS

NWR BROADCAST TEXT
NATIONAL WEATHER SERVICE BISMARCK ND
200 AM CST SUN JAN 22 2017

NOTE: "FAIR" INDICATES FEW OR NO CLOUDS BELOW 12,000 FEET WITH NO
SIGNIFICANT WEATHER AND/OR OBSTRUCTIONS TO VISIBILITY.


CITY           SKY/WX    TMP DP  RH WIND       PRES   REMARKS
WILLISTON      CLOUDY    30  28  92 NW10      29.65R
MINOT          CLOUDY    31  29  92 W7        29.59R FOG
MINOT AFB      MOCLDY    30  28  94 W12       29.58R FOG
BISMARCK       CLOUDY    22  20  92 W3        29.66R
DICKINSON      FAIR      15  12  88 W9        29.61R WCI   3
GARRISON         N/A     29  27  92 W10       29.61R WCI  20
HETTINGER ARPT FAIR      20  16  84 NW14      29.65R WCI   7
JAMESTOWN      CLOUDY    31  30  96 W10       29.60R
CARRINGTON     CLOUDY    28  28 100 W13       29.63R FOG     WCI  18
HAZEN          CLOUDY   N/A N/A N/A SW10      29.66R
MANDAN         CLOUDY    23  23 100 W9        29.65R FOG     WCI  13
STANLEY        CLOUDY    30  30 100 W15       29.62R WCI  19
WATFORD CITY   CLOUDY    27  27 100 W8        29.66R FOG     WCI  18
$$

CITY           SKY/WX    TMP DP  RH WIND       PRES   REMARKS
GRAND FORKS    FOG       34  33  96 CALM      29.61R VSB 1
GRAND FORKS AF CLOUDY    33  33  99 CALM      29.61R FOG
DEVILS LAKE    CLOUDY    30  29  96 W13       29.60R WCI  20
FARGO          FOG       36  35  96 CALM      29.61R VSB 1/4
GRAFTON        FOG       32  32 100 CALM      29.63R VSB 1/2
GWINNER        CLOUDY    34  34 100 NW9       29.61R
$$

CITY           SKY/WX    TMP DP  RH WIND       PRES   REMARKS
ABERDEEN       CLOUDY    31  27  85 W5        29.64R
MOBRIDGE       FAIR      16  11  80 N7        29.62R WCI   6
BUFFALO          N/A     20  17  88 W10       29.59R WCI   9
RAPID CITY     FAIR      26  21  81 W3        29.68R
GLASGOW        CLOUDY    24  22  91 NW12      29.69R FOG     WCI  13
SIDNEY         CLOUDY    25  23  92 S7        29.68R WCI  17
WOLF POINT     CLOUDY    19  16  88 SW6       29.70R FOG     WCI  11
GLENDIVE       FAIR      17  14  88 W6        29.67R WCI   9
MILES CITY     FAIR      13   9  84 CALM      29.71R FOG
BAKER          FAIR      16  13  88 VRB3      29.67R
$$

CITY           SKY/WX    TMP DP  RH WIND       PRES   REMARKS
BILLINGS       FAIR      28  19  69 SW18      29.73R WCI  15
GREAT FALLS    CLOUDY    25  20  81 W7        29.73R WCI  17
ESTEVAN        CLOUDY    27  25  93 W12       29.60R WCI  16
$$





USA.gov is the U.S. government's official web portal to all federal, state and local government web resources and services.